Weather History for Norfolk, NE

Change the Weather History Date:

Sunday, September 29, 2013

  Actual Average Record
Temperature  
Mean Temperature 65 °F 58 °F  
Max Temperature 80 °F 71 °F 92 °F (1991)
Min Temperature 50 °F 45 °F 20 °F (1899)
Degree Days  
Heating Degree Days 0 8  
Month to date heating degree days 29 118  
Since 1 July heating degree days 45 134  
Cooling Degree Days 0 1  
Month to date cooling degree days 167 90  
Year to date cooling degree days 991 906  
Growing Degree Days 14 (Base 50)    
Moisture  
Dew Point 41 °F    
Average Humidity 43    
Maximum Humidity 63    
Minimum Humidity 23    
Precipitation  
Precipitation 0.00 in 0.09 in 2.16 in (1965)
Month to date precipitation 0.85 2.61  
Year to date precipitation 19.26 23.14  
Snow  
Snow 0.00 in 0.00 in - ()
Month to date snowfall 0.0 0.0  
Since 1 July snowfall 0.0 0.0  
Snow Depth 0.00 in    
Sea Level Pressure  
Sea Level Pressure 29.91 in    
Wind  
Wind Speed 16 mph (SSW)    
Max Wind Speed 26 mph    
Max Gust Speed 35 mph    
Visibility 10 miles    
Events      
T = Trace of Precipitation, MM = Missing Value Source: NWS Daily Summary

Daily Weather History Graph

Daily Weather History Graph

Search for Another Location

Airport:

Trip Planner

Search our weather history database for the weather conditions in past years. The results will help you decide how hot, cold, wet, or windy it might be!

Date:

Astronomy

Sep. 29, 2013 Rise Set
Actual Time 7:24 AM CDT 7:14 PM CDT
Civil Twilight 6:57 AM CDT 7:42 PM CDT
Nautical Twilight 6:24 AM CDT 8:14 PM CDT
Astronomical Twilight 5:51 AM CDT 8:47 PM CDT
Moon 2:02 AM CDT (9/29) 4:15 PM CDT (9/29)
Length of Visible Light 12h 45m
Length of Day
11h 49m
Waning Crescent, 27% of the Moon is Illuminated
Sep 29
Waning Crescent
Oct 4
New
Oct 11
First Quarter
Oct 18
Full
Oct 26
Last Quarter

Hourly Weather History & Observations

Time (CDT) Temp. Dew Point Humidity Pressure Visibility Wind Dir Wind Speed Gust Speed Precip Events Conditions
12:56 AM 51.1 °F 39.9 °F 66% 30.04 in 10.0 mi SSW 10.4 mph - N/A   Clear
1:56 AM 51.1 °F 39.9 °F 66% 30.03 in 10.0 mi SSW 10.4 mph - N/A   Clear
2:56 AM 51.1 °F 39.9 °F 66% 30.01 in 10.0 mi SSW 10.4 mph - N/A   Clear
3:56 AM 50.0 °F 39.9 °F 68% 30.01 in 10.0 mi SSW 9.2 mph - N/A   Clear
4:56 AM 51.1 °F 39.9 °F 66% 30.00 in 10.0 mi SSW 9.2 mph - N/A   Clear
5:56 AM 52.0 °F 39.0 °F 61% 29.99 in 10.0 mi SSW 9.2 mph - N/A   Clear
6:56 AM 53.1 °F 39.0 °F 59% 29.99 in 10.0 mi SSW 15.0 mph - N/A   Clear
7:56 AM 52.0 °F 39.9 °F 63% 29.99 in 10.0 mi SSW 12.7 mph - N/A   Clear
8:56 AM 57.9 °F 39.9 °F 51% 29.99 in 10.0 mi SW 11.5 mph - N/A   Clear
9:56 AM 64.9 °F 41.0 °F 42% 29.98 in 10.0 mi SW 11.5 mph - N/A   Clear
10:56 AM 69.1 °F 39.9 °F 35% 29.96 in 10.0 mi SSW 16.1 mph - N/A   Clear
11:56 AM 73.9 °F 39.9 °F 29% 29.94 in 10.0 mi SW 19.6 mph 27.6 mph N/A   Clear
12:56 PM 75.9 °F 42.1 °F 30% 29.91 in 10.0 mi South 20.7 mph - N/A   Clear
1:56 PM 79.0 °F 41.0 °F 26% 29.88 in 10.0 mi South 19.6 mph 25.3 mph N/A   Clear
2:56 PM 80.1 °F 39.9 °F 24% 29.84 in 10.0 mi SSW 23.0 mph 32.2 mph N/A   Clear
3:56 PM 80.1 °F 39.9 °F 24% 29.82 in 10.0 mi SSW 25.3 mph 34.5 mph N/A   Clear
4:56 PM 79.0 °F 41.0 °F 26% 29.81 in 10.0 mi South 25.3 mph 33.4 mph N/A   Clear
5:56 PM 77.0 °F 39.9 °F 26% 29.81 in 10.0 mi SSW 24.2 mph 33.4 mph N/A   Clear
6:56 PM 72.0 °F 42.1 °F 34% 29.81 in 10.0 mi South 12.7 mph - N/A   Clear
7:56 PM 68.0 °F 42.1 °F 39% 29.81 in 10.0 mi South 12.7 mph - N/A   Clear
8:56 PM 66.0 °F 43.0 °F 43% 29.83 in 10.0 mi South 15.0 mph - N/A   Clear
9:56 PM 64.9 °F 42.1 °F 43% 29.82 in 10.0 mi South 16.1 mph - N/A   Clear
10:56 PM 63.0 °F 42.1 °F 46% 29.81 in 10.0 mi South 18.4 mph 27.6 mph N/A   Clear
11:56 PM 62.1 °F 42.1 °F 48% 29.80 in 10.0 mi South 19.6 mph 27.6 mph N/A   Clear